CEST,Max TemperatureF,Mean TemperatureF,Min TemperatureF,Max Dew PointF,MeanDew PointF,Min DewpointF,Max Humidity, Mean Humidity, Min Humidity, Max Sea Level PressureIn, Mean Sea Level PressureIn, Min Sea Level PressureIn, Max VisibilityMiles, Mean VisibilityMiles, Min VisibilityMiles, Max Wind SpeedMPH, Mean Wind SpeedMPH, Max Gust SpeedMPH,PrecipitationIn, CloudCover, Events, WindDirDegrees
2012-9-1,63,59,55,57,54,52,95,85,68,30.27,30.19,30.12,16,6,3,13,6,,0.00,5,Rain,339
2012-9-2,66,60,54,55,54,52,94,84,68,30.30,30.25,30.21,19,7,6,10,5,,0.00,2,,3
2012-9-3,69,62,54,57,56,54,94,81,60,30.25,30.22,30.18,16,7,6,10,5,,0.00,4,,346
2012-9-4,72,62,52,57,54,52,100,76,47,30.21,30.17,30.11,19,6,4,7,3,,0.00,2,,23
2012-9-5,74,63,52,57,54,50,100,76,46,30.15,30.10,30.06,19,7,5,15,4,,0.02,3,,322
2012-9-6,63,56,48,55,46,41,88,66,42,30.30,30.24,30.15,16,6,6,14,8,,0.00,6,Rain,324
2012-9-7,70,56,43,48,44,41,87,62,29,30.31,30.22,30.15,6,6,6,14,8,,0.00,1,Rain,240
2012-9-8,76,66,57,55,51,44,82,59,43,30.21,30.16,30.10,19,7,6,18,9,25,0.00,3,,270
2012-9-9,79,66,53,57,55,52,94,70,38,30.16,30.11,30.02,12,10,9,14,5,,0.00,,,117
2012-9-10,82,66,51,59,55,50,94,63,36,30.06,30.05,30.01,6,6,6,13,5,,0.00,1,Thunderstorm,155
2012-9-11,82,68,55,61,56,52,88,65,33,30.06,29.95,29.83,19,8,6,43,7,56,0.04,2,Rain-Thunderstorm,224
2012-9-12,60,55,50,59,54,48,100,93,81,29.91,29.86,29.82,19,5,2,18,10,,0.28,6,Rain,304
2012-9-13,60,53,46,48,46,43,100,82,55,30.06,29.96,29.86,6,5,2,14,7,,0.02,6,Rain,311
2012-9-14,63,52,41,46,43,40,93,72,32,30.12,29.99,29.86,19,9,6,17,9,,0.00,1,,218
2012-9-15,59,54,48,48,46,44,87,72,51,30.12,29.99,29.86,6,6,6,15,12,,0.00,1,,252
2012-9-16,66,56,46,48,47,45,93,70,41,30.14,30.09,30.01,6,6,6,10,6,,0.00,2,,184
2012-9-17,68,56,44,54,49,43,93,74,47,30.01,29.99,29.97,19,19,19,7,5,,0.00,,,165
2012-9-18,75,62,49,57,53,50,100,75,44,29.99,29.91,29.83,16,6,4,12,5,,0.00,2,Fog,210
2012-9-19,58,51,44,56,48,39,100,81,51,30.13,29.97,29.80,16,6,1,23,9,33,0.03,5,Rain-Thunderstorm,298
2012-9-20,57,48,40,43,40,37,93,72,48,30.25,30.20,30.12,6,6,6,9,7,,0.00,2,,260
2012-9-21,60,49,38,43,40,37,100,69,37,30.25,30.13,29.95,16,8,6,9,6,,0.00,1,,160
2012-9-22,62,54,44,52,45,39,100,79,48,30.09,29.91,29.83,19,6,2,20,8,,0.04,5,Rain,241
2012-9-23,57,48,40,43,40,37,93,73,43,30.16,30.06,29.89,6,6,6,12,7,,0.00,3,,158
2012-9-24,64,53,42,57,49,39,94,82,62,29.86,29.67,29.56,16,8,6,15,5,,0.01,3,Rain,135
2012-9-25,71,60,49,52,49,46,88,69,37,29.75,29.71,29.67,19,9,6,16,10,28,0.00,1,,184
2012-9-26,73,59,45,59,53,46,100,76,49,29.68,29.64,29.61,19,18,16,10,4,,0.00,,,97
2012-9-27,62,58,53,55,50,46,100,80,59,29.95,29.77,29.53,19,7,6,23,10,,0.03,3,Rain,234
2012-9-28,63,56,50,50,47,45,88,74,55,30.12,30.07,29.95,6,6,6,18,13,,0.00,3,Rain,220
2012-9-29,63,52,41,52,47,41,100,81,49,30.12,30.04,29.98,19,8,6,15,6,,0.01,2,Rain,194
2012-9-30,62,52,42,50,44,41,100,75,44,30.24,30.16,30.06,16,7,6,9,6,,0.00,2,,192